Location: Arroyo Grande
(40.2671°N, 4.2512°W)
Time: 13:45:59
(UTC+00:00)

Daily predictions for brighter satellites

Satellite Brightness Start Highest point End
(mag) Time Altitude Azimuth Time Altitude Azimuth Time Altitude Azimuth
Cosmos 2227 4.3 17:57:45 10° NNW 18:03:31 65° ENE 18:09:12 10° SSE
SL-08 RB Rocket 4.1 17:59:14 10° S 18:03:51 74° W 18:08:30 10° NNW
Cosmos 1892 3.0 18:00:54 10° SSE 18:04:25 41° E 18:07:57 10° NNE
SKYMED 2 3.9 18:00:21 10° NNE 18:04:32 46° E 18:08:42 10° S
SMAP 3.8 18:00:15 10° S 18:04:50 59° W 18:09:26 10° NNW
Centaur D AC-29 3.7 18:01:04 10° WSW 18:05:02 16° SSW 18:07:34 10° SSE
Cosmos 2278 4.4 18:00:19 10° SW 18:05:54 59° WNW 18:11:32 10° NNE
Cosmos 2360 Rocket 2.9 18:03:07 10° SSE 18:08:06 34° ESE 18:13:08 10° NE
Cosmos 2219 Rocket 3.8 18:05:45 10° SE 18:08:33 14° E 18:11:20 10° ENE
YAOGAN 1 3.9 18:07:44 10° ESE 18:10:49 19° ENE 18:13:55 10° NNE
CZ-4C R/B 3.5 18:08:25 10° NNE 18:12:01 41° E 18:15:25 10° S
Atlas Centaur 2 4.3 18:07:36 10° SSW 18:13:55 26° SSE 18:20:37 10° ESE
Cosmos 1825 2.8 18:11:07 10° SSE 18:14:25 32° E 18:17:44 10° NNE
Cosmos 1954 Rocket 4.0 18:10:09 10° S 18:15:21 66° ESE 18:20:32 10° NNE
Cosmos 2333 Rocket 3.2 18:11:53 10° SSE 18:16:26 26° ESE 18:21:01 10° NE
RESURS DK-1 3.9 18:14:37 10° N 18:17:25 17° NE 18:20:13 10° E
Cosmos 2322 Rocket 2.2 18:14:38 10° S 18:20:10 65° ESE 18:25:44 10° NNE
Cosmos 1536 Rocket 4.3 18:17:00 10° SSW 18:21:15 57° W 18:25:31 10° N
Cosmos 1184 Rocket 3.7 18:20:44 10° NNW 18:22:56 36° W 18:25:05 10° SSW
USA 215 3.3 18:16:50 10° SE 18:23:23 82° NE 18:29:58 10° NW
Cosmos 1763 Rocket 3.6 18:20:27 10° N 18:25:29 51° ENE 18:30:25 10° SE
Timation 2 Rocket 4.4 18:20:22 10° NNW 18:26:37 71° WSW 18:33:07 10° SSE
ADEOS 4.4 18:22:09 10° S 18:27:16 57° WSW 18:32:25 10° NNW
BlueWalker 3 4.3 18:28:41 10° NNW 18:30:23 12° N 18:32:06 10° NNE
Lacrosse 5 2.2 18:25:23 10° SW 18:30:27 66° NW 18:35:33 10° NE
SL-4 R/B 4.0 18:29:06 10° NNW 18:30:56 13° N 18:32:49 10° NNE
COSMOS 2428 4.3 18:29:20 10° ESE 18:31:50 13° E 18:32:20 13° E
CZ-4B R/B 3.4 18:28:04 10° S 18:32:10 64° W 18:36:04 10° NNW
ATLAS 2AS CENTAUR R/B 2.7 18:26:05 10° NNW 18:33:00 63° NE 18:39:31 10° SE
BREEZE-M DEB (TANK) 2.7 18:29:42 10° WNW 18:34:41 56° SW 18:37:08 10° SE
SL-16 R/B 2.6 18:29:10 10° SSW 18:34:47 66° WNW 18:40:27 10° NNE
In-Cosmos 22 Rocket 4.3 18:29:48 10° S 18:35:30 64° E 18:41:16 10° NNE
Cosmos 2228 3.3 18:31:19 10° NNW 18:35:31 69° W 18:39:43 10° S
Delta 2 Rocket 3.9 18:33:17 10° WSW 18:36:20 34° S 18:38:39 15° ESE
Cosmos 1606 Rocket 3.5 18:32:38 10° N 18:36:56 64° E 18:41:12 10° SSE
Cosmos 841 Rocket 4.5 18:33:34 10° N 18:37:57 26° ENE 18:42:08 11° ESE
Cosmos 540 Rocket 3.8 18:34:40 10° N 18:39:34 43° ENE 18:44:25 10° SE
Cosmos 1340 3.7 18:37:14 10° NNE 18:40:10 22° ENE 18:42:00 16° ESE
Cosmos 1892 Rocket 3.6 18:41:09 10° S 18:45:30 59° E 18:49:50 10° NNE
MINOTAUR 4 R/B 4.2 18:46:22 11° NNE 18:49:34 44° E 18:52:50 10° S
COSMO-SKYMED 1 3.5 18:48:19 10° N 18:52:31 49° WNW 18:56:42 10° SSW
PAYLOAD B 4.1 18:47:21 10° SSE 18:52:50 71° ENE 18:58:20 10° N
IRIDIUM 103 4.4 18:50:19 10° N 18:55:27 54° E 19:00:32 10° SSE
Genesis I 3.1 18:53:10 10° SSW 18:57:06 89° SSE 18:59:52 19° NNE
Cosmos 2322 4.4 18:53:10 10° SSE 18:58:07 31° ESE 19:00:25 23° ENE
ATLAS CENTAUR R/B 4.4 18:57:38 10° NW 18:58:27 10° NW 18:59:16 10° NNW
Meteor 1-27 4.2 18:59:06 10° N 19:04:51 65° ENE 19:10:28 10° SSE
Cosmos 1869 3.1 19:02:54 10° N 19:06:48 64° E 19:10:42 10° SSE
Cosmos 1726 Rocket 3.7 19:04:44 10° NNW 19:09:02 73° W 19:13:19 10° S
ISS -2.4 19:06:03 10° WNW 19:09:12 37° SW 19:11:34 15° SSE
IRIDIUM 106 4.2 19:08:31 10° N 19:13:45 81° E 19:18:58 10° S
Cosmos 1633 3.5 19:11:31 10° SSW 19:14:43 45° W 19:17:58 10° N
PSLV R/B 3.9 19:11:44 10° S 19:15:20 69° WSW 19:19:02 10° NNW
Okean O Rocket 1.5 19:15:02 10° SSE 19:19:20 59° ENE 19:23:40 10° N
Cosmos 1461 4.5 19:15:42 10° WSW 19:19:35 34° NW 19:23:11 12° NNE
Cosmos 1626 Rocket 4.1 19:16:04 10° SSE 19:19:07 37° SE 19:19:07 37° SE
Cosmos 1745 Rocket 3.9 19:18:04 10° N 19:24:16 63° E 19:30:21 10° SSE
Cosmos 1386 Rocket 4.3 19:21:23 10° N 19:27:24 72° E 19:33:26 10° SSE
Okean 1-7 Rocket 4.0 19:25:38 10° S 19:28:53 43° SE 19:28:53 43° SE
Lacrosse 5 rocket 2.4 19:29:13 10° NNW 19:31:19 28° N 19:31:19 28° N
Cosmos 1844 Rocket 3.1 19:27:38 10° NNW 19:33:07 61° WSW 19:38:35 10° S
CZ-4B R/B 3.4 19:30:01 10° S 19:35:18 71° WSW 19:40:44 10° NNW
BREEZE M DEB (TANK) 3.8 19:33:01 10° WNW 19:35:55 29° SW 19:35:58 29° SW
CZ-4 R/B 1.5 19:34:24 10° S 19:38:31 74° W 19:42:36 10° NNW
Cosmos 1709 Rocket 3.9 19:36:44 10° N 19:42:45 55° E 19:43:12 54° E
DMSP 5D-2 F-14 4.5 19:41:58 24° SSE 19:45:18 78° ENE 19:50:45 10° N
YAOGAN 1 4.1 19:42:38 10° SSW 19:46:37 36° W 19:50:37 10° NNW
Cosmos 2058 Rocket 3.9 19:42:25 10° NNW 19:46:41 50° W 19:50:57 10° SSW
Cosmos 44 Rocket 3.5 19:43:36 10° SW 19:48:13 63° NW 19:49:10 50° N
Cosmos 1844 4.4 19:43:45 10° NNW 19:49:22 53° WSW 19:54:55 10° S
Cosmos 2219 Rocket 2.3 19:46:11 10° SSW 19:51:44 74° WNW 19:54:09 35° NNE
Cosmos 2360 Rocket 3.7 19:46:57 10° WSW 19:52:02 34° WNW 19:57:09 10° N
RESURS DK-1 3.5 19:51:39 10° NW 19:55:32 41° WSW 19:56:26 36° SW
Cosmos 2333 Rocket 3.2 19:55:03 10° SW 20:00:24 44° WNW 20:04:25 17° N
Cosmos 883 Rocket 4.4 19:54:34 10° S 20:00:50 89° E 20:07:11 10° N
Atlas Centaur 2 3.7 19:55:08 10° WSW 20:02:45 40° S 20:04:15 38° SSE
Cosmos 2278 Rocket 4.1 20:00:04 10° N 20:01:33 17° N 20:01:33 17° N
USA 81 4.5 20:04:16 10° SSW 20:09:27 60° W 20:14:40 10° N
Lacrosse 5 3.9 20:10:43 10° WNW 20:14:17 19° NNW 20:15:03 18° NNW
COSMOS 2428 2.9 20:09:38 10° SSW 20:14:26 64° SW 20:14:26 64° SW
